Zurück zum Katalog

COSMOS 1275 DEB

AktivPO
NORAD 12749·DEBRIS·🇷🇺 Russia

Gestartet Jun 4, 1981 von Plesetsk Cosmodrome

Loading…

Nächste Überflüge (nächste 24 Stunden)

TLE

AktuellSource: Space-Track

Epoche: Sep 13, 2026, 18:38 UTC

1 12749U 81053CS  26256.77648677  .00000316  00000-0  30437-3 0  9993
2 12749  82.8142   8.2308 0060813 293.3388 229.9383 13.76396165258216

Verfolge COSMOS 1275 DEB in Echtzeit mit AllMySat

Download on the App Store